Back to catalog

STARLINK-32495

AliveCommunicationsVLEO
NORAD 62052·PAYLOAD·🇺🇸 United States

Launched Nov 21, 2024 from Cape Canaveral Space Force Station

Loading…

Next Passes (next 24 hours)

TLE

FreshSource: CelesTrak SupGP

Epoch: Sep 15, 2026, 02:21 UTC

1 62052C 24216W   26258.09840278 -.00000251  00000+0 -91035-5 0  2581
2 62052  43.0006 273.3592 0001191 266.7966 162.5338 15.27585271    17

Track STARLINK-32495 in real time with AllMySat

Download on the App Store